Lexington Weather

Lexington, Massachusetts, USA

42°F
4/22/2024 8:32am 
  • Lexington Conditions: Clear
  • Temperature: 42.4°F / 5.8°CWarmer 3.6°F than last hour.
  • Dew Point: 27.0°FDecreased 3.2°Fsince last hour.
  • Relative Humidity: 54%Decreased 17.0% since last hour.
  • Wind: Calm, 10-min avg: Calm, gust: None
  • Barometer: 29.95 in Steady
  • Visibility: 10 miles
  • Rain Today: 0.00 in
  •   

Regional Weather Roundup
for Boston, MA

        
000
ASUS41 KBOX 201610
RWRBOX

REGIONAL WEATHER ROUNDUP
NATIONAL WEATHER SERVICE BOSTON/NORTON MA
1200 PM EDT SAT APR 20 2024

NOTE:  "FAIR" INDICATES FEW OR NO CLOUDS BELOW 12,000 FEET WITH NO 
SIGNIFICANT WEATHER AND/OR OBSTRUCTIONS TO VISIBILITY.

MAZALL-201700-
EASTERN MASSACHUSETTS
  
CITY           SKY/WX    TMP DP  RH WIND       PRES   REMARKS
BOSTON         CLOUDY    52  51  97 SW7       29.88F                  
BEVERLY        CLOUDY    51  49  92 SW5       29.87F                  
LAWRENCE       CLOUDY    53  49  86 SW6       29.89F                  
BEDFORD        PTSUNNY   53  50  89 SW6       29.87F                  
NORWOOD        CLOUDY    53  48  83 SW6       29.88F                  
MARSHFIELD     DRIZZLE   50  48  93 SW5       29.88F                  
PLYMOUTH       LGT RAIN  50  48  93 S5        29.88F                  
TAUNTON        LGT RAIN  51  46  83 SW7       29.91F                  
NEW BEDFORD    RAIN      50  48  93 SW3       29.89F                  
$$

MAZALL-201700-
CAPE COD AND THE ISLANDS
  
CITY           SKY/WX    TMP DP  RH WIND       PRES   REMARKS
FALMOUTH       LGT RAIN  48  48 100 SW10      29.91F FOG              
HYANNIS        RAIN      48  47  96 SW7       29.90F FOG              
CHATHAM        CLOUDY    48  47  96 VRB5      29.92S                  
PROVINCETOWN   RAIN      47  47 100 S7        29.90F                  
NANTUCKET      CLOUDY    49  48  97 W10       29.92F FOG              
MARTHAS VNYRD  RAIN      48  48 100 S7        29.90F FOG              
$$
 
MAZALL-201700-
CENTRAL AND WESTERN MASSACHUSETTS
  
CITY           SKY/WX    TMP DP  RH WIND       PRES   REMARKS
WORCESTER      MOSUNNY   55  47  74 W8        29.87F                  
FITCHBURG      PTSUNNY   57  47  69 SE5       29.87F                  
ORANGE         CLOUDY    55  47  74 CALM      29.88F                  
SPRINGFIELD    PTSUNNY   55  46  71 VRB3      29.85F                  
WESTFIELD      PTSUNNY   58  48  69 SW7       29.87F                  
NORTH ADAMS    CLOUDY    54  37  52 W10G16    29.90F                  
PITTSFIELD     CLOUDY    51  38  60 NW9       29.89F                  
$$
 
RIZALL-201700-
RHODE ISLAND
  
CITY           SKY/WX    TMP DP  RH WIND       PRES   REMARKS
PROVIDENCE     LGT RAIN  49  49 100 S6        29.91F FOG              
NEWPORT        LGT RAIN  47  47 100 SW6       29.91F                  
BLOCK ISLAND   LGT RAIN  46  46 100 SW10      29.92F                  
SMITHFIELD     CLOUDY    49  49 100 VRB3      29.90F                  
WESTERLY       LGT RAIN  49  47  93 SW8       29.92F                  
$$
 
CTZALL-201700-
CONNECTICUT
  
CITY           SKY/WX    TMP DP  RH WIND       PRES   REMARKS
BRADLEY INTL   PTSUNNY   58  49  72 VRB3      29.89F                  
HARTFORD       CLOUDY    55  50  83 SE6       29.90F                  
PLAINVILLE     CLOUDY    57  51  80 VRB6      29.89F                  
BRIDGEPORT     CLOUDY    52  50  93 SW9       29.92F                  
DANBURY        MOSUNNY   59  49  69 SW9       29.92F                  
GROTON         LGT RAIN  50  49  96 SW8       29.92F FOG              
NEW HAVEN      CLOUDY    53  50  89 S9        29.92F FOG              
CHESTER        CLOUDY    50  50 100 SW5       29.92S                  
MERIDEN        CLOUDY    54  47  77 VRB3      29.91F                  
WILLIMANTIC    CLOUDY    51  48  89 VRB3      29.91F                  
OXFORD         CLOUDY    53  48  83 SW5       29.91F                  
$$

MEZ002-015-021-024-NHZ003-005-008-011-012-014-VTZ005-008-201700-
NORTHERN NEW ENGLAND
  
CITY           SKY/WX    TMP DP  RH WIND       PRES   REMARKS
PORTLAND ME    CLOUDY    50  49  96 S9        29.85F                  
BANGOR ME      LGT RAIN  46  44  93 SW7       29.86F                  
CONCORD NH     CLOUDY    52  47  83 S5        29.87F                  
MANCHESTER NH  CLOUDY    56  47  71 VRB3      29.86F                  
NASHUA NH      PTSUNNY   56  53  90 VRB3      29.88F                  
PORTSMOUTH NH  CLOUDY    54  50  88 S6        29.86F                  
JAFFREY NH     CLOUDY    53  45  74 SW5       29.87F                  
KEENE NH       CLOUDY    52  46  80 W6        29.87F                  
BURLINGTON VT  PTSUNNY   55  20  25 VRB6      29.85F                  
MT. WASHINGTON SNOW      25  25 100 W23         N/A  VSB 0   WCI  10  
$$

NYZ052-076-201700-
EASTERN NEW YORK
  
CITY           SKY/WX    TMP DP  RH WIND       PRES   REMARKS
ALBANY         PTSUNNY   55  33  43 W13G20    29.92F                  
NEW YORK CITY  PTSUNNY   57  47  69 CALM      29.92F                  
$$
 
ANZALL-201700-
MARINE OBSERVATIONS
  
STATION/POSITION TIME  TEMP    WIND        PRES    VSBY  WAVE
                       AIR SEA DIR/SP/G                  HT/PER
                 (UTC) (F)     (DEG/KT/KT) (MB)    (MI)  (FT/S)
BOSTON BUOY      1550   46     190/  6/  6 1011.8F         2/11
BUZZARDS BAY     1500   45     240/  6/  7 1014.0F
NANTUCKET SOUND  1550   48 48  240/  8/ 10 1012.8F         1/ 5
MASS BAY-STELLWA 1404   46 45  200/ 10/ 12 1013.6S  1 7/8  2/ 8
ISLE OF SHOALS   1500   47     190/ 11/ 11 1011.9F
S OF BLOCK IS    1556      45                N/A           4/ 9
$$

......................KEY.........................
  SKY/WX - SKY CONDITION/PRESENT WEATHER
  TMP    - TEMPERATURE IN FAHRENHEIT
  DWPT   - DEWPOINT IN FAHRENHEIT
  RH     - RELATIVE HUMIDITY IN PERCENT
  WIND   - DIRECTION AND SPEED IN MPH
  PRES   - MEAN SEA LEVEL PRESSURE IN INCHES OF HG
  WCI    - WIND CHILL INDEX
  VSB    - VISIBILITY IN MILES
  HX     - HEAT INDEX
  TC     - TEMPERATURE IN CELSIUS
  VRB    - VARIABLE WIND DIRECTION
  N/A    - NOT AVAILABLE
  
      

Other recent Regional Weather Roundups

Mon Apr 22, 8:10am EDT

Mon Apr 22, 7:10am EDT

Mon Apr 22, 6:10am EDT

Mon Apr 22, 5:10am EDT

Mon Apr 22, 4:10am EDT

Mon Apr 22, 3:10am EDT

Mon Apr 22, 2:10am EDT

Mon Apr 22, 1:10am EDT

Mon Apr 22, 12:10am EDT

Sun Apr 21, 11:10pm EDT

Sun Apr 21, 10:10pm EDT

Sun Apr 21, 9:10pm EDT

Sun Apr 21, 8:10pm EDT

Sun Apr 21, 7:10pm EDT

Sun Apr 21, 6:10pm EDT

Sun Apr 21, 5:10pm EDT

Sun Apr 21, 4:10pm EDT

Sun Apr 21, 3:10pm EDT

Sun Apr 21, 2:10pm EDT

Sun Apr 21, 1:10pm EDT

Sun Apr 21, 12:10pm EDT

Sun Apr 21, 11:10am EDT

Sun Apr 21, 10:10am EDT

Sun Apr 21, 9:10am EDT

Sun Apr 21, 8:10am EDT

Sun Apr 21, 7:10am EDT

Sun Apr 21, 6:10am EDT

Sun Apr 21, 5:10am EDT

Sun Apr 21, 4:10am EDT

Sun Apr 21, 3:10am EDT

Sun Apr 21, 2:10am EDT

Sun Apr 21, 1:10am EDT

Sun Apr 21, 12:10am EDT

Sat Apr 20, 11:10pm EDT

Sat Apr 20, 10:10pm EDT

Sat Apr 20, 9:10pm EDT

Sat Apr 20, 8:10pm EDT

Sat Apr 20, 7:10pm EDT

Sat Apr 20, 6:10pm EDT

Sat Apr 20, 5:10pm EDT

Sat Apr 20, 4:10pm EDT

Sat Apr 20, 3:10pm EDT

Sat Apr 20, 2:10pm EDT

Sat Apr 20, 1:10pm EDT

Sat Apr 20, 11:10am EDT

Sat Apr 20, 10:10am EDT

Sat Apr 20, 9:10am EDT

Sat Apr 20, 8:10am EDT

Sat Apr 20, 7:10am EDT

Sat Apr 20, 6:10am EDT

Sat Apr 20, 5:10am EDT

Sat Apr 20, 4:10am EDT

Sat Apr 20, 3:10am EDT

Sat Apr 20, 2:10am EDT

Sat Apr 20, 1:10am EDT

Sat Apr 20, 12:10am EDT

Fri Apr 19, 11:10pm EDT

Fri Apr 19, 10:10pm EDT

Fri Apr 19, 9:10pm EDT

Fri Apr 19, 8:10pm EDT

Fri Apr 19, 7:10pm EDT

Fri Apr 19, 6:10pm EDT

Fri Apr 19, 5:10pm EDT

Fri Apr 19, 4:10pm EDT

Fri Apr 19, 3:10pm EDT

Fri Apr 19, 2:10pm EDT

Fri Apr 19, 1:10pm EDT

Fri Apr 19, 12:10pm EDT

Fri Apr 19, 11:10am EDT

Fri Apr 19, 10:10am EDT

Fri Apr 19, 9:10am EDT

Fri Apr 19, 8:10am EDT

Fri Apr 19, 7:10am EDT

Fri Apr 19, 6:10am EDT

Fri Apr 19, 5:10am EDT

Fri Apr 19, 4:10am EDT

Fri Apr 19, 3:10am EDT

Fri Apr 19, 2:10am EDT

Fri Apr 19, 1:10am EDT

Fri Apr 19, 12:10am EDT

Thu Apr 18, 11:10pm EDT

Thu Apr 18, 10:10pm EDT

Thu Apr 18, 9:10pm EDT

Thu Apr 18, 8:10pm EDT

Thu Apr 18, 7:10pm EDT

Thu Apr 18, 6:10pm EDT

Thu Apr 18, 5:10pm EDT

Thu Apr 18, 4:10pm EDT

Thu Apr 18, 3:10pm EDT

Thu Apr 18, 2:10pm EDT

Thu Apr 18, 1:10pm EDT

Thu Apr 18, 12:10pm EDT

Thu Apr 18, 11:10am EDT

Thu Apr 18, 10:10am EDT

Thu Apr 18, 9:10am EDT

Thu Apr 18, 8:10am EDT

Thu Apr 18, 7:10am EDT

Thu Apr 18, 6:10am EDT

Thu Apr 18, 5:10am EDT

Thu Apr 18, 4:10am EDT

Thu Apr 18, 3:10am EDT

Thu Apr 18, 2:10am EDT

Thu Apr 18, 1:10am EDT

Thu Apr 18, 12:10am EDT

Wed Apr 17, 11:10pm EDT

Wed Apr 17, 10:10pm EDT

Wed Apr 17, 9:10pm EDT

Wed Apr 17, 8:10pm EDT

Wed Apr 17, 7:10pm EDT

Wed Apr 17, 6:10pm EDT

Wed Apr 17, 5:10pm EDT

Wed Apr 17, 4:10pm EDT

Wed Apr 17, 3:10pm EDT

Wed Apr 17, 2:10pm EDT

Wed Apr 17, 1:10pm EDT

Wed Apr 17, 12:10pm EDT

Wed Apr 17, 11:10am EDT

Wed Apr 17, 10:10am EDT

Wed Apr 17, 9:10am EDT

Wed Apr 17, 8:10am EDT

Wed Apr 17, 7:10am EDT

Wed Apr 17, 6:10am EDT

Wed Apr 17, 5:10am EDT

Wed Apr 17, 4:10am EDT

Wed Apr 17, 3:10am EDT

Wed Apr 17, 2:10am EDT

Wed Apr 17, 1:10am EDT

Wed Apr 17, 12:10am EDT

Tue Apr 16, 11:10pm EDT

Tue Apr 16, 10:10pm EDT

Tue Apr 16, 9:10pm EDT

Tue Apr 16, 8:10pm EDT

Tue Apr 16, 7:10pm EDT

Tue Apr 16, 6:10pm EDT

Tue Apr 16, 5:10pm EDT

Tue Apr 16, 4:10pm EDT

Tue Apr 16, 3:10pm EDT

Tue Apr 16, 2:10pm EDT

Tue Apr 16, 1:10pm EDT

Tue Apr 16, 12:10pm EDT

Tue Apr 16, 11:10am EDT

Tue Apr 16, 10:10am EDT

Tue Apr 16, 9:10am EDT

Tue Apr 16, 8:10am EDT

Tue Apr 16, 7:10am EDT

Tue Apr 16, 6:10am EDT

Tue Apr 16, 5:10am EDT

Tue Apr 16, 4:10am EDT

Tue Apr 16, 3:10am EDT

Tue Apr 16, 2:10am EDT

Tue Apr 16, 1:10am EDT

Tue Apr 16, 12:10am EDT

Mon Apr 15, 11:10pm EDT

Mon Apr 15, 10:10pm EDT

Mon Apr 15, 9:10pm EDT

Mon Apr 15, 8:10pm EDT

Mon Apr 15, 7:10pm EDT

Mon Apr 15, 6:10pm EDT

Mon Apr 15, 5:10pm EDT

Mon Apr 15, 4:10pm EDT

Mon Apr 15, 3:10pm EDT

Mon Apr 15, 2:10pm EDT

Mon Apr 15, 1:10pm EDT

Mon Apr 15, 12:10pm EDT

Mon Apr 15, 11:10am EDT

Mon Apr 15, 10:10am EDT

Mon Apr 15, 9:10am EDT